Weather History for Abilene Dyess, TX

Change the Weather History Date:

Friday, November 23, 2012

  Actual Average Record
Temperature  
Mean Temperature 50 °F -  
Max Temperature 62 °F 61 °F 84 °F (2005)
Min Temperature 34 °F 41 °F 28 °F (2013)
Degree Days  
Heating Degree Days 16    
Moisture  
Dew Point 26 °F    
Average Humidity 38    
Maximum Humidity 52    
Minimum Humidity 21    
Precipitation  
Precipitation 0.00 in - - ()
Sea Level Pressure  
Sea Level Pressure 30.36 in    
Wind  
Wind Speed 14 mph (North)    
Max Wind Speed 24 mph    
Max Gust Speed 31 mph    
Visibility 10 miles    
Events      
Averages and records for this station are not official NWS values.
T = Trace of Precipitation, MM = Missing Value Source: NWS Daily Summary

Daily Weather History Graph

Daily Weather History Graph

Search for Another Location

Airport:

Trip Planner

Search our weather history database for the weather conditions in past years. The results will help you decide how hot, cold, wet, or windy it might be!

Date:

Astronomy

Nov. 23, 2012 Rise Set
Actual Time 7:16 AM CST 5:35 PM CST
Civil Twilight 6:50 AM CST 6:01 PM CST
Nautical Twilight 6:20 AM CST 6:31 PM CST
Astronomical Twilight 5:50 AM CST 7:01 PM CST
Moon 2:39 PM CST (11/23) 2:50 AM CST (11/23)
Length of Visible Light 11h 11m
Length of Day
10h 18m
Waxing Gibbous, 80% of the Moon is Illuminated
Nov 23
Waxing Gibbous
Nov 28
Full
Dec 6
Last Quarter
Dec 13
New
Dec 19
First Quarter

Hourly Weather History & Observations

Time (CST) Temp. Windchill Dew Point Humidity Pressure Visibility Wind Dir Wind Speed Gust Speed Precip Events Conditions
12:03 AM 62.6 °F - 44.6 °F 52% 30.09 in 10.0 mi NW 13.8 mph - N/A   Clear
12:55 AM 58.1 °F - 37.6 °F 46% 30.14 in 10.0 mi NW 9.2 mph - N/A   Clear
1:55 AM 57.0 °F - 37.9 °F 49% 30.17 in 10.0 mi NNW 12.7 mph - N/A   Clear
2:55 AM 55.4 °F - 37.2 °F 50% 30.20 in 10.0 mi NW 10.4 mph - N/A   Clear
3:55 AM 54.1 °F - 35.4 °F 49% 30.23 in 10.0 mi NNW 16.1 mph - N/A   Clear
4:55 AM 53.6 °F - 35.2 °F 50% 30.26 in 10.0 mi North 16.1 mph 26.5 mph N/A   Overcast
5:55 AM 54.0 °F - 34.0 °F 47% 30.30 in 10.0 mi North 24.2 mph 28.8 mph N/A   Overcast
6:55 AM 52.5 °F - 32.2 °F 46% 30.34 in 10.0 mi North 21.9 mph 28.8 mph N/A   Overcast
7:55 AM 51.8 °F - 28.9 °F 41% 30.38 in 10.0 mi North 20.7 mph 28.8 mph N/A   Overcast
8:55 AM 52.3 °F - 28.2 °F 39% 30.42 in 10.0 mi NNE 18.4 mph 27.6 mph N/A   Partly Cloudy
9:55 AM 55.4 °F - 23.9 °F 30% 30.43 in 10.0 mi NNE 21.9 mph 31.1 mph N/A   Clear
10:55 AM 57.9 °F - 23.0 °F 26% 30.44 in 10.0 mi NE 19.6 mph 28.8 mph N/A   Clear
11:55 AM 59.2 °F - 22.6 °F 25% 30.43 in 10.0 mi NNE 18.4 mph 28.8 mph N/A   Clear
12:55 PM 60.4 °F - 22.8 °F 24% 30.42 in 10.0 mi North 20.7 mph 26.5 mph N/A   Clear
1:55 PM 60.6 °F - 21.7 °F 22% 30.41 in 10.0 mi NNE 21.9 mph 27.6 mph N/A   Clear
2:55 PM 60.6 °F - 19.9 °F 21% 30.41 in 10.0 mi NNE 15.0 mph 24.2 mph N/A   Clear
3:55 PM 60.6 °F - 20.8 °F 22% 30.40 in 10.0 mi NNE 12.7 mph - N/A   Clear
4:55 PM 58.5 °F - 18.9 °F 21% 30.41 in 10.0 mi NNE 11.5 mph - N/A   Clear
5:55 PM 54.3 °F - 17.6 °F 24% 30.42 in 10.0 mi NNE 9.2 mph - N/A   Clear
6:55 PM 45.5 °F 42.5 °F 20.1 °F 36% 30.44 in 10.0 mi North 5.8 mph - N/A   Clear
7:55 PM 43.0 °F 40.3 °F 19.8 °F 40% 30.45 in 10.0 mi North 4.6 mph - N/A   Clear
8:55 PM 41.4 °F 38.4 °F 19.8 °F 42% 30.46 in 6.0 mi NNW 4.6 mph - N/A   Haze
9:55 PM 38.3 °F 34.8 °F 19.9 °F 48% 30.47 in 10.0 mi NNW 4.6 mph - N/A   Clear
10:55 PM 37.0 °F 33.3 °F 20.1 °F 50% 30.44 in 10.0 mi North 4.6 mph - N/A   Clear
11:55 PM 34.2 °F - 17.2 °F 50% 30.45 in 8.0 mi Calm Calm - N/A   Clear